User: anonymous   Login
Location: Strawberry
(45.6646°N, 111.9596°W)
Time: 20:01:42
(UTC+00:00)
Language:

PRISM - Orbit

View from above orbital plane
View from above orbital plane
View from above satellite
View from above satellite

Ground track
Ground track

The orbit data is extracted from the following two-line orbital elements,

1 33493U 09002B   23338.12300992  .00012976  00000-0  77517-3 0  9993
2 33493  98.2333   5.0223 0014045 189.2388 170.8584 15.11167149809373
Epoch (UTC): 04 December 2023 02:57:08
Eccentricity: 0.0014045
inclination: 98.2333°
perigee height: 523 km
apogee height: 542 km
right ascension of ascending node: 5.0223°
argument of perigee: 189.2388°
revolutions per day: 15.11167149
mean anomaly at epoch: 170.8584°
orbit number at epoch: 80937

The dashed part of the orbit path shows where the satellite is in the earth's shadow,  

DLR